Terminal Aerodrome Forecast
Issued by NWS Louisville, KY

Home | Current Version | Previous Version | Text Only | Print | Product List | Glossary On
Versions: 1 2 3 4 5 6 7 8 9 10 11 12 13 14 15 16
277
FTUS43 KLMK 200520
TAFBWG
TAF
KBWG 200520Z 2006/2106 00000KT P6SM SKC
     FM200900 00000KT 4SM BR FEW050
      TEMPO 2010/2013 1SM BR
     FM201400 16004KT P6SM FEW040 FEW250=

USA.gov is the U.S. government's official web portal to all federal, state and local government web resources and services.